This is the latest recevied weather packets stored in our database for station/object KF0JHJ. If no packets are shown the sender has not sent any weather packets the latest 10 day(s).
| Time | Temp. | Humidity | Pressure | Rain* | Wind** | Luminosity | Snow |
|---|---|---|---|---|---|---|---|
| 1777908270 | 15.56° C | 49% | 997.3 hPa | - | - | 157 W/m² | - |
| 1777907966 | 15.56° C | 52% | 997.4 hPa | - | - | 230 W/m² | - |
| 1777907662 | 15.56° C | 50% | 997.3 hPa | - | - | 137 W/m² | - |
| 1777907358 | 15.56° C | 49% | 997.4 hPa | - | - | 127 W/m² | - |
| 1777907054 | 15.56° C | 53% | 997.3 hPa | - | - | 111 W/m² | - |
| 1777906752 | 15° C | 50% | 997.5 hPa | - | - | 165 W/m² | - |
| 1777906448 | 15° C | 51% | 997.5 hPa | - | - | 165 W/m² | - |
| 1777906145 | 15° C | 48% | 997.5 hPa | - | - | 152 W/m² | - |
| 1777905842 | 15° C | 50% | 997 hPa | - | - | 127 W/m² | - |
| 1777905539 | 15° C | 49% | 997.1 hPa | - | - | 132 W/m² | - |
| 1777905235 | 15° C | 49% | 996.8 hPa | - | - | 165 W/m² | - |
| 1777904933 | 15.56° C | 47% | 997.1 hPa | - | - | 147 W/m² | - |
| 1777904630 | 15.56° C | 48% | 997 hPa | - | - | 203 W/m² | - |
| 1777904327 | 15.56° C | 50% | 996.9 hPa | - | - | 206 W/m² | - |
| 1777904024 | 16.11° C | 48% | 996.7 hPa | - | - | 226 W/m² | - |
| 1777903721 | 16.11° C | 49% | 997 hPa | - | - | 202 W/m² | - |
| 1777903416 | 15° C | 49% | 996.9 hPa | - | - | 221 W/m² | - |
| 1777903113 | 15° C | 48% | 996.9 hPa | - | - | 196 W/m² | - |
| 1777902810 | 15.56° C | 48% | 997 hPa | - | - | 128 W/m² | - |
| 1777902508 | 15.56° C | 45% | 996.6 hPa | - | - | 126 W/m² | - |
| 1777902204 | 16.11° C | 43% | 996.5 hPa | - | - | 181 W/m² | - |
| 1777901902 | 16.11° C | 47% | 996.7 hPa | - | - | 146 W/m² | - |
| 1777901600 | 16.11° C | 48% | 996.8 hPa | - | - | 180 W/m² | - |
| 1777901297 | 15.56° C | 48% | 996.7 hPa | - | - | 190 W/m² | - |
| 1777900994 | 15.56° C | 50% | 996.6 hPa | - | - | 71 W/m² | - |
* Rain since midnight (hover to see other rain measurements)
** Current wind speed in m/s (hover to see current wind gust speed)